Location: Cran-Gévrier
(45.9039°N, 6.1012°E)
Time: 12:37:25
(UTC+00:00)

Cosmos 1386 Rocket - Visible Passes

Search period start: 25 September 2023 00:00
Search period end: 05 October 2023 00:00
Orbit: 929 x 1005 km, 83.0° (Epoch: 24 September)

Date Brightness Start Highest point End Pass type
(mag) Time Alt. Az. Time Alt. Az. Time Alt. Az.
25 Sep 7.4 03:07:21 10° ESE 03:10:38 15° ENE 03:13:54 10° NE visible
25 Sep 4.7 04:48:30 10° S 04:54:53 87° E 05:01:12 10° N visible
26 Sep 6.8 03:28:07 10° SE 03:33:06 25° E 03:38:02 10° NNE visible
27 Sep 5.9 03:49:51 10° SSE 03:55:42 41° E 04:01:31 10° NNE visible
28 Sep 7.6 02:33:19 10° E 02:34:28 11° ENE 02:35:38 10° ENE visible
28 Sep 4.9 04:12:11 10° S 04:18:27 68° E 04:24:40 10° NNE visible
29 Sep 7.0 02:52:39 10° ESE 02:56:51 19° E 03:01:01 10° NE visible
29 Sep 4.5 04:35:01 10° SSW 04:41:20 75° W 04:47:37 10° N visible
30 Sep 6.3 03:13:57 10° SE 03:19:23 31° E 03:24:46 10° NNE visible
30 Sep 4.8 04:58:20 10° SSW 05:04:22 46° WNW 05:10:21 10° N visible
01 Oct 5.3 03:35:59 10° SSE 03:42:04 52° E 03:48:05 10° NNE visible
02 Oct 7.2 02:17:37 10° ESE 02:20:39 14° ENE 02:23:39 10° NE visible
02 Oct 4.5 03:58:33 10° S 04:04:53 85° E 04:11:08 10° N visible
03 Oct 6.6 02:38:16 10° SE 02:43:06 24° E 02:47:54 10° NNE visible
03 Oct 4.5 04:21:37 10° SSW 04:27:50 59° WNW 04:33:59 10° N visible
04 Oct 5.7 02:59:56 10° SSE 03:05:42 39° E 03:11:24 10° NNE visible
04 Oct 5.0 04:45:12 10° SW 04:50:56 36° WNW 04:56:36 10° N visible
